This is the latest recevied weather packets stored in our database for station/object DH4SBM. If no packets are shown the sender has not sent any weather packets the latest 10 day(s).
| Time | Temp. | Humidity | Pressure | Rain* | Wind** | Luminosity | Snow |
|---|---|---|---|---|---|---|---|
| 1777922734 | 17.78° C | 60% | 1013.7 hPa | 0 mm | - | 0 W/m² | - |
| 1777922134 | 17.78° C | 60% | 1013.7 hPa | 0 mm | - | 0 W/m² | - |
| 1777921534 | 17.78° C | 60% | 1013.6 hPa | 0 mm | - | 0 W/m² | - |
| 1777920934 | 17.78° C | 60% | 1013.7 hPa | 0 mm | - | 0 W/m² | - |
| 1777920334 | 17.78° C | 59% | 1013.5 hPa | 0 mm | - | 0 W/m² | - |
| 1777919745 | 17.78° C | 58% | 1013.6 hPa | 0 mm | - | 0 W/m² | - |
| 1777919145 | 18.33° C | 57% | 1013.5 hPa | 0 mm | - | 7 W/m² | - |
| 1777918545 | 18.33° C | 57% | 1013.5 hPa | 0 mm | - | 12 W/m² | - |
| 1777917945 | 18.89° C | 56% | 1013.5 hPa | 0 mm | - | 21 W/m² | - |
| 1777917345 | 18.89° C | 56% | 1013.5 hPa | 0 mm | - | 32 W/m² | - |
| 1777916745 | 18.89° C | 55% | 1013.4 hPa | 0 mm | - | 40 W/m² | - |
| 1777916145 | 19.44° C | 54% | 1013.3 hPa | 0 mm | - | 30 W/m² | - |
| 1777915545 | 19.44° C | 54% | 1013.2 hPa | 0 mm | - | 30 W/m² | - |
| 1777914945 | 19.44° C | 53% | 1013.1 hPa | 0 mm | - | 39 W/m² | - |
| 1777914345 | 19.44° C | 52% | 1013.1 hPa | 0 mm | - | 30 W/m² | - |
| 1777913745 | 19.44° C | 52% | 1013.2 hPa | 0 mm | - | 33 W/m² | - |
| 1777913145 | 20° C | 51% | 1013.1 hPa | 0 mm | - | 35 W/m² | - |
| 1777912545 | 20° C | 51% | 1013.2 hPa | 0 mm | - | 35 W/m² | - |
| 1777911945 | 20.56° C | 51% | 1013.4 hPa | 0 mm | - | 42 W/m² | - |
| 1777911345 | 20.56° C | 51% | 1013.3 hPa | 0 mm | - | 62 W/m² | - |
| 1777910745 | 20.56° C | 50% | 1013.3 hPa | 0 mm | - | 62 W/m² | - |
| 1777910145 | 21.11° C | 48% | 1013.3 hPa | 0 mm | - | 62 W/m² | - |
| 1777909545 | 21.67° C | 45% | 1013.2 hPa | 0 mm | - | 83 W/m² | - |
| 1777908945 | 22.22° C | 45% | 1013.3 hPa | 0 mm | - | 155 W/m² | - |
| 1777908345 | 21.67° C | 47% | 1013.3 hPa | 0 mm | - | 290 W/m² | - |
* Rain latest hour (hover to see other rain measurements)
** Current wind speed in m/s (hover to see current wind gust speed)